Weather in Siminchi

Russia / Sverdlovsk Oblast     56°25′53″N   58°19′41″E
temp.,
°C
wind,
m/s
gust,
m/s
humid.,
%
clouds,
%
prec.,
mm/h
press.,
hPa
HPBL,
m
26 september, sun
sun2623:00+11se51141100 0.0 1015397
02:00+8se31171100 0.1 1015565
05:00+7ese81375100 0.3 1014442
08:00+8e81659100 0.5 1014540
11:00+11ese91544100 0.5 1013973
14:00+12ese101546100 0.0 10131160
17:00+9ese91472100 0.6 1015735
20:00+7ese91681100 1.2 1016846
27 september, mon
mon2723:00+4e91495100 2.5 1017812
02:00+2e71596100 2.6 1017711
05:00+2e71486100 4.6 1018874
08:00+2e81586100 1.3 1018860
11:00+3e81682100 1.8 1019870
14:00+5e91465100 0.1 10201104
17:00+6e9156099 0.1 10211228
20:00+4e8156028 0.0 1022777
28 september, tue
tue2823:00+3ene815675 0.0 1023823
02:00+2ene713777 0.0 1024721
05:00+2e81268100 0.0 10251122
08:00+2ene61166100 0.0 10251347
11:00+5ene8115998 0.1 10251527
14:00+7ene794799 0.0 10251732
17:00+6ne685181 0.0 10251525
20:00+3ne376699 0.0 1027165
29 september, wed
wed2923:00+4nne3757100 0.0 1026279
02:00+3nne497199 0.0 1027326
05:00−1nne388548 0.0 1028188
08:000nne388651 0.0 1029233
11:00+5ne455515 0.0 10281049
14:00+8nne344495 0.0 10281596
17:00+8nne444476 0.0 10281555
20:00+3nne336492 0.0 102943
30 september, thu
thu3023:00+2nne227074 0.0 103015
02:000n22765 0.0 103011
05:00−1nnw118099 0.0 103010
08:000nw2278100 0.0 103091
11:00+4nw3463100 0.0 1029486
14:00+7nw45495 0.0 10281146
17:00+7nw465258 0.0 10271374
20:00+4nnw3661100 0.0 1027273